CZ-6A DEB, 54482

Orbit data source: Space-Track

CZ-6A DEB, 54482 is space debris in SSO originally from a launch on Fri, 11 Nov 2022 UTC launched from the Taiyaun Space Center, China (TSC). Debris objects in space refer to the collection of defunct objects orbiting the Earth. Examples of debris include non-operational satellites, rocket bodies, and fragments generated from explosions, collisions, or faulty payload assembly.

Loading next visibility...
Identifier
54482, 2022-151HJ
Orbit
SSO
Country
Flag of CNCN / PRC
Related business
Manufacturer
SAST
Mission
Spacecraft
Bus & Motor
Unknown
Mass
Unknown
Launch date (UTC)
2022-11-11 (4 years ago)
Launch vehicle
Unknown
Launch site
Taiyaun Space Center, China (TSC)
Object type
Payload
Rocket body
Debris
Shape & HBR
Unknown shape, 0.1 m
Radar Cross Section
Medium (>0.1 m² and <1 m²)

Expand to show TLE details & history
Last TLE update: 2 days ago

TLE from 2 days ago
0 CZ-6A DEB
1 54482U 22151HJ  26171.16529107  .00011601  00000-0  15938-2 0  9999
2 54482  98.6289 242.2772 0062990 257.9308 101.4837 14.77147683190892
Epoch: 2026-06-20T03:58Z
TLE epoch observation values (Epoch: 2026-06-20T03:58:01.148Z)
Latitude
-0.00001°
Longitude
-85.61141°
Altitude
650.405 km
Speed
7.528 km/s
True Right ascension
16h 09m 06s
True Declination
0° 00' 00"
Sunlit
Object was in full shadow at epoch
Visualization orbit readout
Latitude
Unknown
Longitude
Unknown
Altitude
Unknown
Speed
Unknown
Apparent Right ascension
Unknown
Apparent Declination
Unknown
Sunlit
N/A
Visualization observer readout
Local Sidereal Time
21:32:20
Azimuth
Unknown
Elevation
Unknown
Doppler factor
Unknown
Orbital elements
Apogee altitude
679.599 km
Perigee altitude
591.242 km
Semi-major axis
7,013.558 km
Eccentricity
0.0063
Inclination
98.6289°
RAAN
242.2772°
Arg. of periapsis
257.9308°
True anomaly
102.18994°
Mean anomaly
101.4837°
Eccentric anomaly
101.83693°
Mean motion
3.69518 °/min
Orbital period
97.42 mins
BSTAR
0.0015938
Loading maneuver chart data...
Computing Atmospheric mass density...
Loading historical data...
Loading historical data...
Loading historical data...
Loading historical data...
Loading historical data...
Loading historical data...
Loading historical data...

Documentation

Showing up to 5 results
|